{"data":{"norad_id":64081,"intl_designator":"2025-107T","name":"STARLINK-34180","alt_names":[],"object_type":"PAYLOAD","status":"ACTIVE","operator":null,"country":"US","launch_date":"2025-05-21","launch_site_code":"AFETR","launch_vehicle":null,"mission":null,"orbit_class":"UNKNOWN","rcs_meters":null,"size_class":null,"mass_kg":null,"dimensions":null,"purposes":["comms"],"wikipedia_slug":null,"has_3d_model":false,"image_url":null,"decayed_at":null,"tle_current":{"epoch":"2026-05-25T05:16:42.053088Z","epoch_age_seconds":59542,"freshness":"FRESH","line1":"1 64081U 25107T   26145.21993117  .00021971  00000+0  80497-3 0  9995","line2":"2 64081  42.9998 129.4409 0001306 264.6749  95.3954 15.27603726 57825","mean_motion":15.27603726,"eccentricity":0.0001306,"inclination_deg":42.9998,"raan_deg":129.4409,"arg_perigee_deg":264.6749,"mean_anomaly_deg":95.3954,"bstar":0.00080497,"rev_number":5782,"period_min":94.265284608241,"perigee_km":482.0819911539,"apogee_km":483.87411440568,"semimajor_km":6861.1150527798,"source":"CELESTRAK","updated_at":"2026-05-25T13:38:20.261521Z"}}}